Weather reports worldwide

Advertisment
Winfield/Arkansas City, ks, United States of America (2074083): temperature & dewpoint: 01.07.2020 18:00:00 - 07.07.2020 18:00:00 (CDT)Winfield/Arkansas City, ks, United States of America (2074083): wind speed & gusts: 01.07.2020 18:00:00 - 07.07.2020 18:00:00 (CDT)Winfield/Arkansas City, ks, United States of America (2074083): wind direction: 01.07.2020 18:00:00 - 07.07.2020 18:00:00 (CDT)Winfield/Arkansas City, ks, United States of America (2074083): reduced air pressure: 01.07.2020 18:00:00 - 07.07.2020 18:00:00 (CDT)Winfield/Arkansas City, ks, United States of America (2074083): visibility: 01.07.2020 18:00:00 - 07.07.2020 18:00:00 (CDT)Winfield/Arkansas City, ks, United States of America (2074083): precipitation: 01.07.2020 18:00:00 - 07.07.2020 18:00:00 (CDT)
Date & Time tt [°C] td [°C] ff [km/h] ff [kn] fx [km/h] fx [kn] dd ppp [hPa] vv [km] rr [mm]
07.07.2020 18:00:00 33,9 19,4 16 9 - - SE 1011,4 16 -
07.07.2020 17:00:00 32,2 19,4 21 11 - - SSE 1012,1 16 -
07.07.2020 16:00:00 33,9 18,3 11 6 - - - 1012,7 16 -
07.07.2020 15:00:00 34,4 18,9 22 12 - - SSE 1013,5 16 -
07.07.2020 14:00:00 33,3 18,3 18 10 - - ESE 1014,3 16 -
07.07.2020 13:00:00 - - - - - - - - - -
07.07.2020 12:00:00 31,7 20,6 11 6 - - SE 1015,1 16 -
07.07.2020 11:00:00 30,6 20,6 5 3 - - - 1015,9 16 -
07.07.2020 10:00:00 29,4 21,1 8 4 - - SE 1015,7 16 -
07.07.2020 09:00:00 27,8 21,1 0 0 - - N 1016,1 16 -
07.07.2020 08:00:00 26,1 21,1 5 3 - - NNE 1015,6 16 -
07.07.2020 07:00:00 22,2 20,6 0 0 - - N 1015,1 16 -
07.07.2020 06:00:00 22,2 20,6 0 0 - - N 1014,6 16 -
07.07.2020 05:00:00 21,7 20,0 8 4 - - S 1013,9 16 -
07.07.2020 04:00:00 23,3 20,6 0 0 - - N 1014,3 16 -
07.07.2020 03:00:00 22,8 20,6 0 0 - - N 1014,3 16 -
07.07.2020 02:00:00 23,9 20,6 0 0 - - N 1014,7 16 -
07.07.2020 01:00:00 24,4 20,6 5 3 - - E 1014,5 16 -
07.07.2020 00:00:00 25,0 21,1 5 3 - - ESE 1014,5 16 -
06.07.2020 23:00:00 23,9 20,6 8 4 - - NNW 1014,1 16 -
06.07.2020 22:00:00 27,2 21,1 9 5 - - E 1012,9 16 -
06.07.2020 21:00:00 27,8 20,6 15 8 - - E 1012,4 16 -
06.07.2020 20:00:00 29,4 20,6 11 6 - - E 1013,1 16 -
06.07.2020 19:00:00 30,6 20,0 15 8 - - E 1013,3 16 -
06.07.2020 18:00:00 30,6 20,0 15 8 - - E 1013,9 16 -
06.07.2020 17:00:00 32,8 20,0 26 14 - - ENE 1013,5 16 -
06.07.2020 16:00:00 31,1 20,6 13 7 - - NNE 1013,4 16 -
06.07.2020 15:00:00 34,4 20,0 18 10 - - ESE 1013,5 16 -
06.07.2020 14:00:00 33,9 20,0 15 8 - - ESE 1013,5 16 -
06.07.2020 13:00:00 32,8 20,6 15 8 - - E 1014,6 16 -
06.07.2020 12:00:00 32,8 20,0 16 9 - - E 1014,9 16 -
06.07.2020 11:00:00 30,0 20,0 8 4 - - ESE 1014,9 16 -
06.07.2020 10:00:00 30,0 21,1 11 6 - - - 1014,6 16 -
06.07.2020 09:00:00 27,2 21,1 8 4 - - ESE 1014,5 16 -
06.07.2020 08:00:00 25,0 21,1 0 0 - - N 1014,2 16 -
06.07.2020 07:00:00 22,8 20,6 0 0 - - N 1013,6 16 -
06.07.2020 06:00:00 22,8 20,6 5 3 - - ESE 1013,3 16 -
06.07.2020 05:00:00 22,2 20,6 0 0 - - N 1013,3 16 -
06.07.2020 04:00:00 24,4 21,1 0 0 - - N 1013,1 16 -
06.07.2020 03:00:00 24,4 21,1 8 4 - - E 1012,7 16 -
06.07.2020 02:00:00 25,6 21,1 9 5 - - E 1013,4 16 -
06.07.2020 01:00:00 25,6 21,1 8 4 - - E 1013,5 16 -
06.07.2020 00:00:00 26,1 21,1 9 5 - - ESE 1013,0 16 -
05.07.2020 23:00:00 26,7 20,6 8 4 - - ESE 1012,8 16 -
05.07.2020 22:00:00 27,8 20,0 13 7 - - E 1011,9 16 -
05.07.2020 21:00:00 29,4 20,0 8 4 - - E 1011,2 16 -
05.07.2020 20:00:00 30,6 20,0 8 4 - - SE 1010,9 16 -
05.07.2020 19:00:00 32,2 19,4 11 6 - - ESE 1010,7 16 -
05.07.2020 18:00:00 33,3 19,4 16 9 - - ESE 1010,7 16 -
05.07.2020 17:00:00 33,3 18,9 13 7 - - E 1011,2 16 -
05.07.2020 16:00:00 33,3 19,4 15 8 - - SE 1011,5 16 -
05.07.2020 15:00:00 33,3 19,4 16 9 - - SE 1012,0 16 -
05.07.2020 14:00:00 33,3 20,0 9 5 - - SE 1012,7 16 -
05.07.2020 13:00:00 32,2 20,0 8 4 - - - 1013,3 16 -
05.07.2020 12:00:00 31,1 20,6 16 9 - - E 1013,7 16 -
05.07.2020 11:00:00 29,4 21,1 13 7 - - E 1014,0 16 -
05.07.2020 10:00:00 28,3 21,1 8 4 - - ESE 1014,0 16 -
05.07.2020 09:00:00 26,7 21,7 8 4 - - SE 1014,0 16 -
05.07.2020 08:00:00 23,9 20,6 8 4 - - E 1013,6 16 -
05.07.2020 07:00:00 22,2 20,0 5 3 - - E 1013,3 16 -
05.07.2020 06:00:00 22,2 20,0 5 3 - - ESE 1013,1 16 -
05.07.2020 05:00:00 22,2 20,6 8 4 - - E 1012,9 16 -
05.07.2020 04:00:00 22,8 20,6 8 4 - - ENE 1013,0 16 -
05.07.2020 03:00:00 23,3 21,1 5 3 - - ENE 1013,1 16 -
05.07.2020 02:00:00 23,3 21,1 9 5 - - ENE 1013,1 16 -
05.07.2020 01:00:00 23,9 21,7 0 0 - - N 1012,9 16 -
05.07.2020 00:00:00 23,9 21,1 5 3 - - SE 1013,0 16 -
04.07.2020 23:00:00 25,6 21,1 8 4 - - SSE 1013,3 16 -
04.07.2020 22:00:00 28,3 20,6 5 3 - - E 1012,5 16 -
04.07.2020 21:00:00 30,6 20,6 9 5 - - ENE 1012,2 16 -
04.07.2020 20:00:00 31,7 20,0 13 7 - - NE 1011,5 16 -
04.07.2020 19:00:00 32,2 18,9 9 5 - - ENE 1011,1 16 -
04.07.2020 18:00:00 33,9 18,9 13 7 - - NE 1011,4 16 -
04.07.2020 17:00:00 33,3 19,4 9 5 - - N 1011,8 16 -
04.07.2020 16:00:00 32,8 19,4 11 6 - - ENE 1012,9 16 -
04.07.2020 15:00:00 32,8 20,0 15 8 - - NE 1013,5 16 -
04.07.2020 14:00:00 31,7 20,0 15 8 - - ENE 1014,1 16 -
04.07.2020 13:00:00 32,2 21,1 18 10 - - E 1014,7 16 -
04.07.2020 12:00:00 31,1 20,6 16 9 - - ENE 1014,9 16 -
04.07.2020 11:00:00 29,4 21,1 13 7 - - ENE 1015,1 16 -
04.07.2020 10:00:00 27,8 21,7 8 4 - - NNE 1015,2 16 -
04.07.2020 09:00:00 26,1 21,7 11 6 - - NNE 1015,1 16 -
04.07.2020 08:00:00 22,8 20,0 13 7 - - NW 1015,4 16 -
04.07.2020 07:00:00 21,1 18,9 5 3 - - NW 1014,8 16 -
04.07.2020 06:00:00 21,1 18,9 0 0 - - N 1014,2 16 -
04.07.2020 05:00:00 20,6 18,3 9 5 - - N 1014,0 16 -
04.07.2020 04:00:00 20,6 18,3 5 3 - - NW 1014,1 16 -
04.07.2020 03:00:00 22,2 18,9 8 4 - - NNE 1014,4 16 -
04.07.2020 02:00:00 21,7 18,9 9 5 - - NNE 1015,3 16 -
04.07.2020 01:00:00 21,7 19,4 11 6 - - NW 1015,6 16 -
04.07.2020 00:00:00 23,9 19,4 5 3 - - NNE 1015,5 16 -
03.07.2020 23:00:00 24,4 20,0 9 5 - - NE 1015,7 16 -
03.07.2020 22:00:00 25,6 19,4 5 3 - - E 1014,9 16 -
03.07.2020 21:00:00 26,7 20,0 18 10 - - NE 1014,3 16 -
03.07.2020 20:00:00 31,1 18,9 18 10 - - NE 1013,6 16 -
03.07.2020 19:00:00 32,2 19,4 13 7 - - NNE 1013,7 16 -
03.07.2020 18:00:00 33,3 19,4 11 6 - - N 1013,5 16 -
03.07.2020 17:00:00 33,3 19,4 - - - - - 1013,9 16 -
03.07.2020 16:00:00 32,2 19,4 0 0 - - N 1014,7 16 -
03.07.2020 15:00:00 30,6 21,1 8 4 - - E 1015,5 16 -
03.07.2020 14:00:00 28,3 21,7 5 3 - - SE 1016,3 16 -
03.07.2020 13:00:00 24,4 21,7 8 4 - - N 1016,9 16 0,0
03.07.2020 12:00:00 22,8 20,6 13 7 - - E 1016,8 13 3,0
03.07.2020 11:00:00 23,9 20,6 8 4 - - NW 1018,6 16 1,8
03.07.2020 10:00:00 26,7 18,9 13 7 - - SE 1017,3 16 -
03.07.2020 09:00:00 24,4 18,3 9 5 - - ENE 1017,2 16 -
03.07.2020 08:00:00 23,3 18,3 11 6 - - SE 1015,9 16 -
03.07.2020 07:00:00 21,7 18,3 9 5 - - SE 1014,7 16 -
03.07.2020 06:00:00 21,1 17,8 9 5 - - SSE 1014,4 16 -
03.07.2020 05:00:00 22,8 17,8 8 4 - - - 1014,3 16 -
03.07.2020 04:00:00 22,2 18,3 16 9 - - NE 1016,3 16 -
03.07.2020 03:00:00 22,8 17,8 24 13 63 34 N 1017,1 16 -
03.07.2020 02:00:00 25,6 19,4 24 13 - - NNW 1016,0 16 -
03.07.2020 01:00:00 25,6 19,4 5 3 - - SSE 1013,7 16 -
03.07.2020 00:00:00 26,1 20,0 11 6 - - SSE 1014,5 16 -
02.07.2020 23:00:00 27,2 19,4 13 7 - - SE 1015,0 16 -
02.07.2020 22:00:00 28,9 18,9 11 6 - - ESE 1014,6 16 -
02.07.2020 21:00:00 30,0 19,4 11 6 - - ESE 1012,4 16 -
02.07.2020 20:00:00 30,6 18,3 9 5 - - SE 1011,0 16 -
02.07.2020 19:00:00 33,3 16,1 15 8 - - SSE 1011,2 16 -
02.07.2020 18:00:00 35,0 17,2 13 7 - - SSE 1011,8 16 -
02.07.2020 17:00:00 36,7 16,1 22 12 - - SE 1012,1 16 -
02.07.2020 16:00:00 36,1 18,3 16 9 - - SE 1012,0 16 -
02.07.2020 15:00:00 35,6 18,3 16 9 - - SSE 1012,4 16 -
02.07.2020 14:00:00 33,3 18,3 18 10 - - SE 1012,5 16 -
02.07.2020 13:00:00 32,8 18,9 16 9 - - SE 1013,1 16 -
02.07.2020 12:00:00 31,1 20,6 16 9 - - S 1013,0 16 -
02.07.2020 11:00:00 23,3 18,9 18 10 - - E 1014,6 16 0,5
02.07.2020 10:00:00 22,2 21,1 11 6 50 27 ENE 1015,4 11 0,5
02.07.2020 09:00:00 28,3 24,4 13 7 - - ESE 1013,5 13 -
02.07.2020 08:00:00 27,2 24,4 15 8 - - SE 1012,1 11 -
02.07.2020 07:00:00 26,7 24,4 9 5 - - SE 1012,0 11 -
02.07.2020 06:00:00 26,7 24,4 11 6 - - SSE 1011,3 13 -
02.07.2020 05:00:00 26,7 24,4 11 6 - - SSE 1011,3 15 -
02.07.2020 04:00:00 27,8 24,4 9 5 - - SE 1011,5 15 -
02.07.2020 03:00:00 27,8 24,4 15 8 - - S 1011,3 15 -
02.07.2020 02:00:00 28,3 24,4 11 6 - - SSE 1010,8 15 -
02.07.2020 01:00:00 28,9 25,0 13 7 - - SSE 1010,7 16 -
02.07.2020 00:00:00 29,4 25,0 16 9 - - SSE 1010,5 16 -
01.07.2020 23:00:00 30,0 25,6 15 8 - - ESE 1010,1 16 -
01.07.2020 22:00:00 31,7 24,4 9 5 - - E 1009,4 16 -
01.07.2020 21:00:00 32,2 23,9 11 6 - - SE 1008,5 16 -
01.07.2020 20:00:00 33,9 23,9 15 8 - - SE 1007,9 16 -
01.07.2020 19:00:00 35,0 23,3 18 10 - - SSE 1007,4 16 -
01.07.2020 18:00:00 36,1 23,9 18 10 - - SE 1007,6 16 -

tt = temperature
td = dewpoint
ff = wind speed
fx = gusts
dd = wind direction
ppp = reduced air pressure
vv = visibility
rr = precipitation

Next stations